RH
73 78 74 79 72 78 78 81 78 63 68 93 69 45 42 70 68 71 82 90 91 94 83 90 89 81 75 70 63 56 65 66 68 69 70 75 78 81 78 75 73 71 64 60
68 78 74 77 81 79 76 65 55 54 67 95 81 58 58 72 65 72 82 92 85 94 88 90 90 85 76 70 59 59 68 67 69 70 73 77 81 81 83 79 76 74 65 59
57 57 73 89 90 93 86 86 64 75 87 97 83 97 72 71 68 72 81 85 90 92 91 89 85 87 83 74 59 62 68 66 68 70 78 81 84 85 86 81 80 73 66 63
52 48 59 87 98 98 95 81 78 90 98 97 88 68 68 63 66 66 73 82 85 82 90 86 89 87 83 77 61 64 64 64 69 73 75 77 79 78 81 84 83 75 70 64
44 45 53 75 93 99 88 87 89 93 98 96 94 78 51 51 58 65 73 77 86 81 86 84 85 85 81 74 64 61 61 63 69 72 74 76 77 85 89 91 86 81 75 67
43 45 47 54 81 98 94 91 92 95 96 97 83 82 57 71 62 64 64 68 79 78 97 93 84 86 81 72 68 62 62 65 68 71 74 73 78 86 92 88 82 79 73 64
50 42 38 51 71 93 98 99 95 93 97 86 85 88 69 69 71 60 56 62 74 83 87 86 89 81 78 70 67 64 67 66 67 71 71 72 76 82 83 80 79 78 75 71
66 56 44 48 59 70 83 88 87 92 79 77 81 78 74 72 80 69 70 73 76 90 90 80 84 83 76 72 67 65 65 67 71 71 71 73 77 79 79 79 77 79 81 81
74 57 50 53 51 65 70 79 79 75 69 67 64 60 73 69 92 87 80 95 90 88 88 77 85 83 80 77 71 65 67 70 71 71 72 72 73 75 76 82 82 84 88 89
80 78 55 56 54 58 68 66 78 82 85 72 55 58 70 66 74 86 91 85 86 89 90 91 92 91 91 86 82 69 75 74 73 71 71 70 70 70 75 76 80 86 89 90
89 86 66 60 59 57 63 64 68 70 76 79 67 54 53 56 61 73 81 83 81 82 79 82 84 93 96 93 82 77 78 78 75 70 73 74 72 71 73 74 84 92 93 94
91 92 79 64 57 55 59 63 62 69 88 71 68 57 48 52 52 64 74 86 84 82 81 71 78 95 94 97 88 83 78 77 73 74 74 75 75 76 75 74 78 88 91 93
89 90 86 68 68 62 61 62 62 61 70 76 74 66 52 52 54 59 72 79 83 79 81 77 77 74 92 87 94 90 79 75 71 74 75 73 74 73 71 72 70 73 83 90
86 87 85 86 88 82 70 67 68 66 69 66 65 61 55 50 54 59 63 76 81 77 77 76 73 75 81 79 84 92 82 75 72 73 72 70 68 67 65 66 72 74 79 82
84 85 80 77 78 79 77 70 69 67 66 72 65 61 62 59 58 60 68 72 79 85 80 79 78 81 78 86 92 86 84 84 77 76 74 71 71 72 67 67 68 71 76 80
83 83 85 87 78 81 78 69 62 62 61 64 65 59 60 59 60 57 64 68 71 79 86 88 86 87 89 92 92 84 85 84 84 78 71 72 72 75 77 72 69 72 76 81
89 87 87 79 79 87 87 73 64 58 57 59 61 53 60 57 60 61 61 64 61 60 70 81 90 95 93 95 95 90 86 88 86 81 77 75 73 73 78 77 76 69 74 79
88 92 92 86 85 89 72 73 71 67 65 60 57 53 54 56 55 60 62 61 63 65 65 70 72 80 84 90 91 87 87 86 83 81 79 77 75 75 80 84 84 84 80 82
93 96 96 95 89 75 72 81 84 87 78 70 66 59 55 54 55 55 58 59 61 59 66 66 63 64 64 68 74 78 82 81 79 77 77 79 80 80 79 80 86 89 90 91
95 98 98 96 95 91 88 83 88 87 91 78 73 69 61 52 55 57 54 53 55 57 55 56 62 61 59 59 60 60 64 68 69 69 68 70 72 73 77 80 85 89 92 93
87 91 96 96 96 86 80 74 78 96 93 87 81 74 70 64 58 54 54 54 54 58 56 57 54 51 51 56 60 64 65 62 63 69 69 68 67 69 73 77 82 86 91 95
85 89 88 96 96 91 78 83 87 96 97 94 91 88 82 73 69 62 56 54 49 49 54 58 58 57 57 55 53 53 53 53 58 61 62 67 72 74 74 78 81 86 90 93
89 85 93 94 93 90 88 93 98 96 94 90 87 85 89 88 82 75 68 60 57 55 49 46 48 52 55 57 56 56 58 60 61 60 59 64 69 73 76 78 82 87 91 99
85 93 97 96 93 95 97 98 95 91 89 89 90 87 86 84 83 84 83 78 69 62 56 53 48 45 48 48 53 60 61 62 63 65 63 67 71 73 81 84 89 88 92 95
92 97 97 94 91 92 94 93 92 89 87 84 84 87 85 83 85 85 83 82 81 77 68 63 61 59 58 64 65 64 66 69 70 68 67 69 72 76 80 85 90 91 97 95
91 97 96 94 95 97 97 97 94 91 90 91 91 91 89 87 88 89 90 87 82 79 76 72 70 69 67 69 71 74 73 78 81 78 75 77 77 80 81 87 94 97 98 96